Wind_Speed
17 16 16 16 16 16 16 16 16 16 16 15 15 14 13 13 13 12 13 12 12 12 12 12 12 12 13 13 13 13 13 14 13 13 14 14 15 14 15 15 15 14 14
18 17 17 16 16 17 17 16 16 16 15 15 14 14 14 13 14 14 13 13 13 13 13 13 12 12 13 13 13 13 14 13 13 14 14 14 14 14 15 15 15 15 15
18 18 17 17 17 18 17 17 16 16 16 15 15 14 14 14 14 14 14 13 13 13 13 12 12 12 12 12 13 13 13 14 14 15 15 15 14 14 15 15 15 15 15
18 18 17 18 18 18 18 18 17 16 16 15 15 15 14 13 14 14 13 13 12 12 12 12 11 11 11 11 12 12 12 13 13 14 15 16 16 15 15 14 15 15 15
19 19 19 19 19 18 18 17 17 16 15 15 14 14 14 13 13 13 13 13 13 13 12 12 11 11 10 11 11 11 12 12 12 13 13 14 16 15 15 15 15 15 16
19 20 20 20 20 19 18 17 16 16 15 14 14 13 13 12 13 13 13 13 13 12 12 12 11 12 11 11 11 11 11 12 13 12 12 13 14 15 15 15 16 16 17
19 19 20 20 20 19 19 17 16 14 14 13 13 12 12 12 12 13 13 13 12 12 11 12 12 12 12 11 11 11 11 11 12 12 13 13 14 14 14 15 15 16 17
19 19 19 20 20 19 18 16 15 13 13 13 13 12 12 12 12 13 13 12 11 11 11 11 12 11 11 11 12 12 12 12 12 13 13 13 14 15 15 15 15 16 16
20 20 19 19 18 17 16 15 14 14 14 13 13 12 12 12 12 12 12 11 10 10 9 10 10 11 11 12 13 13 12 13 13 13 13 13 13 14 14 15 15 16 16
20 19 19 19 18 17 16 15 15 14 13 13 12 12 12 12 12 12 12 11 10 10 9 9 11 12 12 13 13 13 13 12 13 13 13 13 12 12 13 15 16 16 17
20 20 19 19 18 17 16 15 15 14 13 13 13 12 12 11 11 12 11 10 10 9 9 9 10 11 12 12 12 12 12 12 12 11 12 12 12 13 13 14 15 15 16
19 20 19 20 19 18 17 16 15 14 14 13 12 12 12 11 11 10 9 9 9 9 9 9 9 10 11 11 11 11 11 12 12 11 12 12 11 11 12 13 13 14 14
20 20 20 19 19 18 17 16 15 14 13 12 12 12 12 11 11 10 10 9 10 10 9 10 10 10 10 10 10 10 11 11 11 11 11 11 12 11 12 13 14 14 16
22 21 20 19 19 18 17 17 15 14 13 13 13 12 12 12 11 11 10 10 10 10 10 10 10 11 11 11 11 11 12 12 11 10 10 11 12 12 13 13 14 15 15
22 21 20 19 19 18 17 16 15 14 14 14 14 13 13 13 12 12 12 12 12 12 11 11 11 10 10 10 11 11 11 11 11 11 11 12 13 14 15 15 16 16 17
22 22 21 21 20 18 18 18 17 16 15 15 14 15 14 14 14 14 14 14 14 14 13 12 12 12 11 10 10 10 10 11 11 11 12 13 14 15 15 16 17 18 18
24 23 23 22 20 20 19 18 17 17 17 17 16 16 16 16 16 16 15 16 16 16 15 14 14 13 12 12 12 12 12 13 13 13 14 14 15 16 17 18 19 19 19
24 23 23 22 22 21 20 19 18 18 18 18 18 17 17 18 18 17 17 17 17 17 17 15 15 15 15 15 14 14 14 15 15 15 15 16 16 17 18 19 20 20 21
23 22 22 22 22 21 21 20 19 19 19 20 19 19 20 20 20 19 18 17 17 17 17 16 17 17 16 16 16 16 16 17 17 17 17 18 19 19 20 20 21 21 22
23 22 22 22 22 22 21 21 20 20 20 20 20 20 20 20 20 19 19 19 18 18 17 17 17 17 17 18 18 18 18 18 17 18 18 19 20 21 22 22 22 22 23
23 24 23 23 23 23 23 21 21 21 20 20 20 20 20 19 19 19 20 20 19 19 18 17 17 18 18 18 18 19 19 19 19 19 20 21 22 22 23 22 22 22 23
23 23 22 22 22 23 23 22 21 21 21 20 20 20 20 19 20 20 20 20 20 19 18 18 18 18 18 18 18 19 19 20 20 20 21 21 22 22 22 22 23 23 23
22 22 22 22 22 23 23 22 22 22 21 21 21 21 22 22 22 22 22 22 21 20 20 20 20 20 20 20 20 20 21 21 21 22 22 22 22 22 22 23 23 24 23
22 22 22 22 23 23 23 23 23 23 23 22 22 23 23 23 23 23 23 23 22 22 21 21 21 21 21 22 22 22 22 22 22 22 23 22 22 22 23 23 24 24 24
23 23 24 23 22 23 23 23 23 23 23 23 23 23 23 23 23 22 22 22 23 23 23 22 22 22 22 22 23 23 23 24 24 24 23 24 24 24 24 24 24 24 23
24 23 24 24 23 24 24 24 23 22 22 22 22 23 23 22 23 23 22 22 23 23 23 23 23 23 23 24 24 24 24 23 24 25 25 25 25 25 24 24 24 24 24
Wind_Direction
288 293 296 299 301 303 303 302 300 299 297 292 290 288 285 284 285 285 280 277 275 276 276 275 272 270 268 267 266 267 266 265 260 261 260 255 254 254 255 253 250 251 254
284 290 295 298 300 302 303 304 300 297 294 292 288 285 283 283 283 285 281 279 278 276 276 274 271 269 266 265 265 264 266 261 260 260 258 257 254 255 255 253 253 254 255
282 287 294 297 299 301 303 303 301 299 294 291 288 284 282 282 283 279 279 280 276 275 276 274 272 269 266 266 266 264 260 263 263 259 260 258 256 256 255 253 252 254 255
283 287 292 295 296 298 300 300 299 300 296 292 288 286 281 281 284 284 281 279 278 274 275 275 271 270 268 267 266 264 263 261 260 262 262 260 260 260 259 256 255 254 256
282 285 291 294 295 296 297 298 298 298 295 292 290 288 282 281 281 285 282 280 279 275 270 268 267 268 267 269 268 267 264 261 260 261 262 264 265 261 258 257 257 257 258
281 284 287 291 294 297 296 296 297 297 295 292 291 289 281 280 280 283 283 281 278 276 269 265 264 265 267 271 271 266 265 264 262 260 261 266 266 262 260 259 258 258 260
279 283 287 290 292 292 292 292 293 293 293 291 290 287 282 280 280 283 282 281 276 273 268 265 266 265 266 269 270 266 266 267 264 262 263 269 268 264 265 263 262 263 264
280 281 284 287 289 288 288 287 288 289 289 288 286 285 281 280 280 282 282 280 278 273 269 267 265 266 266 269 272 272 269 267 267 266 267 270 272 267 267 266 267 268 268
281 281 282 287 287 287 285 285 284 284 284 285 283 280 279 279 282 284 284 282 280 275 271 269 270 270 268 271 274 273 270 269 268 268 267 270 273 270 268 267 272 272 270
283 284 285 287 287 284 282 283 281 279 280 284 282 278 276 279 283 283 284 280 278 278 276 274 274 271 270 271 270 272 273 270 270 270 270 270 271 271 273 274 272 271 272
283 285 286 287 286 283 282 281 279 276 276 280 278 276 277 281 284 285 283 282 279 281 284 278 278 277 275 271 271 272 271 271 272 271 272 271 270 271 274 276 273 272 275
282 283 284 284 285 282 280 277 276 275 275 275 275 275 277 279 282 285 286 286 285 283 282 282 281 281 279 273 270 271 271 270 271 272 273 272 272 274 275 275 275 275 280
281 281 281 281 279 277 274 273 272 273 273 271 269 272 275 277 278 279 284 289 289 289 288 287 285 283 281 280 276 275 275 273 273 273 272 269 271 274 279 281 281 279 282
282 282 280 279 277 274 271 269 270 270 270 270 271 273 275 276 277 276 279 282 285 287 292 291 290 286 280 276 275 273 274 272 274 274 274 276 277 276 280 284 284 286 287
279 280 278 277 275 272 269 268 269 267 266 266 266 269 271 274 276 272 274 278 281 282 285 288 289 286 283 281 278 279 280 275 273 274 276 278 280 281 283 286 288 290 291
275 276 276 275 273 271 269 266 265 263 263 264 264 266 268 271 274 274 274 276 277 277 279 280 285 283 281 285 285 284 288 288 282 279 279 279 280 281 283 285 288 292 293
274 274 273 270 268 269 268 262 262 261 261 263 264 265 266 270 273 275 275 274 274 276 278 275 279 278 278 280 279 280 283 287 289 285 283 283 283 282 284 285 287 290 292
273 272 272 270 266 264 262 262 261 261 262 263 262 262 265 270 272 274 274 275 275 276 276 276 275 273 274 276 277 277 281 283 286 285 284 284 284 285 286 286 287 288 290
271 271 269 267 264 259 259 261 263 264 264 265 264 263 264 267 269 269 270 273 273 274 273 275 273 270 269 272 274 277 280 283 284 284 284 284 284 287 288 286 287 290 292
268 268 267 266 264 260 258 260 263 264 264 265 265 264 264 265 266 267 268 270 272 273 272 273 271 268 267 269 273 276 281 283 282 282 284 285 286 286 287 286 285 289 292
267 266 266 266 264 260 260 261 262 264 265 266 266 265 265 265 266 267 267 269 271 271 271 270 268 267 268 272 276 279 282 283 283 283 287 288 288 287 288 288 286 288 292
267 267 266 263 262 261 261 261 261 264 265 265 265 264 264 264 266 268 268 270 271 270 269 269 268 269 271 273 277 279 282 284 285 286 288 288 290 289 289 289 289 289 291
264 264 263 262 262 262 260 260 260 261 262 264 264 263 265 265 266 268 269 270 270 270 270 269 269 270 273 275 277 280 283 285 286 287 288 289 290 290 290 290 290 291 292
263 263 262 262 261 261 262 263 263 262 263 264 265 264 265 264 264 266 267 267 267 268 270 269 269 270 272 274 277 280 283 284 286 286 287 288 288 289 289 290 290 290 290
263 263 263 264 261 261 263 263 262 261 261 263 264 265 265 264 266 267 267 266 266 267 268 269 270 271 274 276 278 279 280 282 283 284 284 287 287 288 288 288 288 288 288
262 261 262 261 262 263 263 262 260 261 262 263 264 264 265 266 267 268 268 268 269 270 270 271 272 273 275 277 279 280 281 281 281 282 284 285 286 287 289 289 288 287 287
Height
5860 5858 5857 5856 5854 5853 5851 5849 5848 5847 5846 5845 5844 5844 5844 5843 5843 5843 5842 5843 5843 5843 5843 5844 5844 5844 5844 5844 5844 5844 5844 5845 5845 5846 5848 5849 5850 5851 5852 5853 5855 5856 5857
5857 5856 5854 5853 5852 5850 5848 5847 5845 5844 5843 5842 5841 5841 5840 5840 5840 5840 5840 5840 5840 5840 5840 5841 5841 5841 5841 5841 5841 5842 5841 5841 5842 5843 5844 5845 5847 5848 5849 5850 5851 5852 5854
5853 5852 5851 5850 5849 5847 5845 5844 5842 5841 5840 5839 5838 5838 5838 5837 5837 5837 5837 5837 5837 5837 5837 5838 5838 5838 5838 5839 5839 5839 5839 5839 5839 5840 5841 5842 5843 5844 5845 5846 5848 5849 5850
5850 5849 5848 5847 5845 5844 5843 5841 5839 5838 5837 5836 5836 5835 5835 5835 5834 5834 5834 5834 5834 5835 5835 5835 5835 5835 5835 5836 5836 5835 5835 5836 5836 5837 5838 5838 5839 5840 5842 5843 5844 5845 5847
5847 5845 5844 5843 5842 5840 5839 5838 5836 5835 5834 5833 5833 5832 5832 5832 5832 5832 5832 5832 5832 5832 5832 5832 5832 5832 5833 5833 5833 5833 5832 5833 5833 5834 5834 5835 5836 5837 5838 5840 5841 5842 5843
5843 5842 5841 5840 5838 5836 5835 5834 5833 5832 5831 5830 5830 5830 5829 5830 5830 5830 5829 5829 5829 5829 5829 5829 5829 5829 5830 5830 5830 5830 5830 5830 5830 5831 5831 5832 5833 5833 5835 5836 5837 5838 5839
5838 5838 5837 5836 5834 5832 5831 5830 5829 5829 5828 5828 5827 5827 5827 5827 5827 5827 5827 5826 5826 5826 5826 5826 5826 5827 5827 5827 5827 5827 5827 5828 5828 5828 5828 5829 5829 5830 5831 5832 5833 5834 5835
5834 5834 5833 5831 5830 5828 5827 5827 5826 5826 5825 5825 5825 5825 5825 5825 5825 5825 5824 5824 5824 5823 5823 5824 5824 5824 5824 5825 5825 5825 5825 5825 5825 5825 5826 5826 5826 5827 5828 5829 5829 5830 5831
5830 5829 5828 5826 5824 5824 5824 5823 5823 5823 5823 5822 5822 5822 5822 5822 5823 5822 5822 5822 5821 5821 5821 5821 5821 5821 5821 5821 5822 5822 5822 5822 5822 5823 5823 5823 5824 5824 5824 5825 5826 5826 5827
5826 5825 5824 5822 5822 5820 5819 5819 5820 5820 5820 5820 5820 5820 5820 5820 5820 5820 5820 5819 5819 5819 5819 5819 5818 5818 5818 5818 5818 5819 5819 5819 5819 5820 5820 5820 5821 5821 5821 5822 5822 5822 5823
5822 5821 5820 5819 5818 5817 5816 5816 5817 5817 5817 5817 5817 5817 5817 5817 5818 5818 5817 5817 5817 5817 5816 5816 5816 5816 5815 5815 5815 5815 5816 5816 5816 5817 5817 5817 5817 5818 5818 5818 5818 5818 5818
5818 5818 5817 5816 5815 5814 5814 5814 5814 5814 5814 5814 5815 5815 5815 5815 5816 5816 5815 5815 5815 5815 5814 5814 5814 5813 5813 5813 5813 5813 5813 5813 5813 5814 5814 5814 5814 5814 5814 5814 5815 5815 5814
5814 5813 5812 5812 5811 5810 5810 5810 5811 5811 5812 5812 5812 5813 5813 5813 5814 5814 5813 5813 5813 5813 5812 5812 5812 5811 5811 5810 5810 5810 5810 5810 5811 5811 5811 5811 5812 5811 5811 5811 5811 5810 5810
5809 5808 5808 5807 5807 5806 5807 5807 5807 5808 5809 5809 5810 5810 5811 5811 5811 5811 5811 5811 5811 5811 5810 5810 5809 5809 5808 5808 5808 5808 5808 5808 5808 5808 5808 5808 5809 5808 5808 5808 5807 5807 5806
5803 5803 5803 5803 5802 5802 5803 5803 5804 5805 5805 5806 5807 5807 5808 5808 5809 5809 5809 5809 5809 5808 5808 5807 5807 5807 5806 5806 5805 5805 5805 5805 5805 5805 5805 5805 5805 5805 5805 5805 5804 5803 5802
5798 5798 5798 5798 5797 5798 5799 5799 5800 5801 5802 5802 5803 5804 5804 5805 5805 5806 5806 5806 5806 5806 5805 5805 5805 5804 5804 5803 5803 5803 5803 5803 5802 5802 5803 5802 5802 5802 5801 5801 5800 5799 5798
5792 5792 5792 5791 5791 5793 5794 5795 5796 5797 5798 5799 5800 5800 5801 5801 5802 5802 5802 5802 5802 5802 5802 5802 5801 5801 5801 5801 5800 5800 5800 5799 5799 5799 5799 5798 5798 5797 5797 5796 5796 5795 5793
5786 5786 5787 5787 5787 5787 5789 5790 5791 5792 5793 5794 5795 5796 5797 5797 5798 5798 5798 5798 5798 5798 5798 5798 5798 5798 5798 5797 5797 5796 5796 5796 5795 5795 5795 5794 5793 5793 5792 5791 5791 5789 5788
5780 5780 5781 5781 5782 5782 5784 5785 5786 5787 5788 5789 5790 5791 5792 5793 5793 5794 5794 5794 5794 5794 5793 5793 5793 5793 5794 5793 5793 5793 5792 5792 5791 5791 5790 5789 5788 5787 5786 5786 5785 5784 5783
5774 5775 5775 5776 5777 5778 5778 5779 5781 5782 5783 5784 5785 5786 5787 5787 5788 5789 5789 5789 5789 5789 5789 5789 5789 5789 5789 5789 5789 5789 5788 5787 5786 5786 5785 5784 5783 5782 5781 5780 5779 5778 5777
5768 5769 5769 5770 5771 5772 5773 5774 5775 5776 5777 5778 5779 5780 5781 5782 5783 5784 5784 5784 5784 5784 5784 5784 5784 5784 5784 5784 5784 5784 5783 5782 5781 5781 5780 5779 5778 5776 5775 5774 5773 5773 5771
5762 5762 5763 5764 5765 5766 5768 5769 5770 5771 5772 5773 5774 5774 5775 5776 5777 5778 5779 5779 5779 5779 5779 5779 5779 5779 5779 5779 5778 5778 5778 5777 5776 5775 5774 5773 5772 5771 5770 5769 5767 5766 5765
5755 5756 5756 5758 5759 5760 5762 5763 5764 5765 5766 5767 5768 5769 5770 5771 5772 5772 5773 5773 5773 5773 5774 5774 5774 5774 5774 5774 5773 5772 5772 5771 5770 5769 5768 5767 5766 5765 5764 5763 5761 5760 5759
5749 5749 5750 5751 5753 5754 5755 5756 5758 5759 5760 5761 5762 5762 5763 5764 5765 5765 5766 5766 5767 5767 5767 5768 5768 5768 5768 5768 5767 5767 5766 5765 5765 5764 5763 5762 5760 5759 5758 5757 5755 5754 5753
5742 5743 5744 5745 5746 5747 5749 5750 5751 5752 5753 5754 5755 5756 5757 5758 5758 5759 5759 5760 5760 5760 5761 5761 5761 5761 5762 5761 5761 5760 5759 5758 5758 5757 5756 5755 5754 5753 5752 5750 5749 5747 5746
5734 5735 5737 5738 5739 5741 5742 5743 5744 5745 5746 5747 5748 5749 5749 5750 5751 5752 5752 5753 5753 5753 5754 5754 5754 5754 5754 5754 5753 5753 5752 5751 5750 5750 5749 5748 5747 5746 5744 5743 5741 5740 5739